Wittman Regional Airport

Airport
ICAO code: 
KOSH
Summary
ICAO Region: 
NAM
Territory: 
Location: 
Oshkosh, Wisconsin,
Coordinates: 
Aerial View: 
43° 59' 3.846" N, 88° 33' 25.197" W
Metar
Observation
KOSH 060353Z VRB06KT 7SM OVC006 01/M01 A2959 RMK AO2 SLP033 T00061006
Station
Oshkosh, Wittman Regional Airport
Date/Time
2021-12-06 03:53:00
Wind speed
06 kts
Lowest cloud amount
overcast
Temperature
0.6°C
Dew point
-0.6°C
Humidity
91%
Weather condition
n/a

Description

Airport serving Oshkosh, Wisconsin, USA.

Climatology

Humid continental climate (Köppen climate classification Dfa) - characterized by four seasons: cold, windy, snowy winters, mild springs, hot, humid summers, and crisp and relatively short autumns. Precipitation reaches its lowest in January and February and peaks in summer and latter half of spring.

The city experiences a full range of precipitation and related weather events, including snow, sleet, ice, rain, thunderstorms, tornadoes, heatwaves, and fog.

Runways

Designator Length Width Surface Rops
13/31 933 23 ASP Yes/Yes
4/22 1044 23 ASP Yes/Yes
9/27 1883 46 ASP Yes/Yes
18/36 2439 46 CON Yes/Yes
Airport map: 
Aerial View: 

SKYbrary Partners:

Safety knowledge contributed by: